K3RTA-2 Weather Reports


Display with metric or nautical units.
time (UTC)temp
F
wind
direction
speed
MPH
gust
MPH
rain 1hr
in
rain 24hr
in
rain mn
in
humidity
%
barometer
mb
20260901230004 85 147 0.0 0.0 0.00 0.00 0.00 81 1014.0
20260901225004 86 147 0.0 0.0 0.00 0.00 0.00 79 1014.0
20260901224505 87 148 0.0 0.0 0.00 0.00 0.00 78 1014.0
20260901224004 87 149 0.0 0.0 0.00 0.00 0.00 77 1014.0
20260901223504 87 149 0.0 0.0 0.00 0.00 0.00 76 1013.9
20260901223005 87 148 0.0 1.0 0.00 0.00 0.00 75 1014.0
20260901222504 88 154 0.0 1.0 0.00 0.00 0.00 74 1014.0
20260901222004 88 155 0.0 1.0 0.00 0.00 0.00 74 1014.1
20260901221504 88 148 0.0 1.0 0.00 0.00 0.00 73 1014.2
20260901221004 88 118 0.0 1.0 0.00 0.00 0.00 72 1014.1
20260901220503 89 144 0.0 1.0 0.00 0.00 0.00 71 1014.2
20260901220005 89 158 0.0 1.0 0.00 0.00 0.00 72 1014.3
20260901215504 90 354 0.0 1.0 0.00 0.00 0.00 71 1014.2
20260901215003 90 122 0.0 3.0 0.00 0.00 0.00 70 1014.2
20260901214004 90 142 0.0 3.0 0.00 0.00 0.00 69 1014.2
20260901213504 91 118 2.0 3.0 0.00 0.00 0.00 68 1014.3
20260901212504 91 95 0.0 5.0 0.00 0.00 0.00 69 1014.3
20260901212003 92 130 1.0 3.0 0.00 0.00 0.00 68 1014.3
20260901211004 92 57 0.0 3.0 0.00 0.00 0.00 69 1014.3
20260901210504 92 79 0.0 3.0 0.00 0.00 0.00 67 1014.3
20260901210004 92 110 0.0 5.0 0.00 0.00 0.00 67 1014.4
20260901205005 92 290 1.0 5.0 0.00 0.00 0.00 65 1014.4
20260901204505 92 256 0.0 3.0 0.00 0.00 0.00 67 1014.4
20260901204004 91 88 1.0 5.0 0.00 0.00 0.00 66 1014.4
20260901203504 91 83 0.0 5.0 0.00 0.00 0.00 67 1014.4
20260901203004 91 42 1.0 5.0 0.00 0.00 0.00 68 1014.4
20260901202504 91 1 0.0 2.0 0.00 0.00 0.00 69 1014.4
20260901202004 91 53 0.0 2.0 0.00 0.00 0.00 68 1014.5
20260901201504 91 26 0.0 2.0 0.00 0.00 0.00 69 1014.6
20260901201004 90 80 0.0 1.0 0.00 0.00 0.00 71 1014.7
20260901200504 90 101 0.0 2.0 0.00 0.00 0.00 70 1014.8
20260901200004 90 61 0.0 3.0 0.00 0.00 0.00 68 1014.9
20260901195005 91 75 1.0 3.0 0.00 0.00 0.00 67 1015.0
20260901194503 91 105 0.0 3.0 0.00 0.00 0.00 69 1014.9
20260901194004 91 165 1.0 3.0 0.00 0.00 0.00 68 1015.0
20260901193504 91 300 0.0 2.0 0.00 0.00 0.00 72 1015.0
20260901192504 91 102 0.0 1.0 0.00 0.00 0.00 74 1015.0
20260901192004 91 106 0.0 1.0 0.00 0.00 0.00 74 1014.9
20260901191504 91 167 0.0 0.0 0.00 0.00 0.00 75 1015.0
20260901191004 90 167 0.0 0.0 0.00 0.00 0.00 75 1015.0
20260901190004 89 167 0.0 0.0 0.00 0.00 0.00 76 1015.0
20260901185503 89 167 0.0 0.0 0.00 0.00 0.00 77 1015.0
20260901185004 89 167 0.0 0.0 0.00 0.00 0.00 76 1015.2
20260901184505 89 167 0.0 0.0 0.00 0.00 0.00 76 1015.2
20260901183504 90 169 0.0 2.0 0.00 0.00 0.00 73 1015.0
20260901183004 91 165 1.0 2.0 0.00 0.00 0.00 71 1015.0
20260901182503 91 314 0.0 2.0 0.00 0.00 0.00 72 1015.1
20260901182004 90 70 0.0 2.0 0.00 0.00 0.00 74 1015.2
20260901181505 90 3 0.0 2.0 0.00 0.00 0.00 73 1015.2
20260901181004 90 274 0.0 3.0 0.00 0.00 0.00 74 1015.2
20260901180503 89 107 0.0 3.0 0.00 0.00 0.00 75 1015.3
20260901180004 90 306 0.0 2.0 0.00 0.00 0.00 74 1015.4
20260901175504 90 92 0.0 3.0 0.00 0.00 0.00 74 1015.4
20260901175004 90 77 1.0 3.0 0.00 0.00 0.00 73 1015.4
20260901174503 90 51 0.0 3.0 0.00 0.00 0.00 73 1015.5
20260901174006 91 278 1.0 3.0 0.00 0.00 0.00 71 1015.5
20260901173504 91 82 1.0 3.0 0.00 0.00 0.00 72 1015.3
20260901173004 92 271 1.0 3.0 0.00 0.00 0.00 71 1015.4
20260901172504 92 319 1.0 3.0 0.00 0.00 0.00 70 1015.5
20260901172003 92 44 1.0 3.0 0.00 0.00 0.00 70 1015.4
20260901171504 92 356 1.0 6.0 0.00 0.00 0.00 71 1015.6
20260901171004 91 26 1.0 6.0 0.00 0.00 0.00 73 1015.7
20260901170503 92 310 1.0 6.0 0.00 0.00 0.00 72 1015.7
20260901170004 92 83 0.0 2.0 0.00 0.00 0.00 72 1015.7
20260901165005 91 260 2.0 5.0 0.00 0.00 0.00 73 1015.7
20260901164504 91 93 1.0 3.0 0.00 0.00 0.00 72 1015.8
20260901164004 90 143 1.0 5.0 0.00 0.00 0.00 73 1015.9
20260901163504 90 178 1.0 6.0 0.00 0.00 0.00 74 1016.0
20260901163003 90 36 1.0 6.0 0.00 0.00 0.00 74 1016.0
20260901162004 90 284 1.0 5.0 0.00 0.00 0.00 73 1016.0
20260901161504 89 59 0.0 5.0 0.00 0.00 0.00 74 1016.1
20260901161006 89 263 1.0 5.0 0.00 0.00 0.00 75 1016.2
20260901160504 89 58 1.0 6.0 0.00 0.00 0.00 75 1016.3
20260901160004 88 151 1.0 6.0 0.00 0.00 0.00 75 1016.3
20260901155504 88 150 2.0 6.0 0.00 0.00 0.00 75 1016.2
20260901154004 88 180 2.0 5.0 0.00 0.00 0.00 74 1016.4
20260901153504 89 151 1.0 6.0 0.00 0.00 0.00 76 1016.3
20260901152004 88 115 0.0 5.0 0.00 0.00 0.00 77 1016.5
20260901151504 88 193 1.0 5.0 0.00 0.00 0.00 75 1016.6
20260901151004 89 38 1.0 3.0 0.00 0.00 0.00 75 1016.6
20260901150504 89 163 1.0 3.0 0.00 0.00 0.00 75 1016.5
20260901150003 89 115 0.0 3.0 0.00 0.00 0.00 74 1016.5
20260901145504 89 149 1.0 6.0 0.00 0.00 0.00 74 1016.5
20260901145004 88 252 1.0 6.0 0.00 0.00 0.00 76 1016.6
20260901144504 88 238 1.0 5.0 0.00 0.00 0.00 77 1016.6
20260901143504 87 128 1.0 5.0 0.00 0.00 0.00 78 1016.8
20260901143004 87 191 0.0 5.0 0.00 0.00 0.00 78 1016.8
20260901142504 87 172 0.0 5.0 0.00 0.00 0.00 78 1016.8
20260901142004 87 105 2.0 5.0 0.00 0.00 0.00 78 1016.7
20260901141505 87 219 1.0 2.0 0.00 0.00 0.00 79 1016.8
20260901141004 87 160 0.0 1.0 0.00 0.00 0.00 79 1016.9
20260901140504 86 35 0.0 1.0 0.00 0.00 0.00 80 1016.9
20260901140004 86 350 0.0 2.0 0.00 0.00 0.00 80 1017.0
20260901135503 86 187 0.0 2.0 0.00 0.00 0.00 82 1017.1
20260901134505 85 137 0.0 2.0 0.00 0.00 0.00 83 1017.0
20260901134004 84 94 0.0 3.0 0.00 0.00 0.00 85 1017.0
20260901133504 84 75 0.0 3.0 0.00 0.00 0.00 86 1017.1
20260901133004 84 329 1.0 3.0 0.00 0.00 0.00 85 1017.1
20260901132504 83 249 1.0 3.0 0.00 0.00 0.00 85 1017.0
20260901132004 83 86 0.0 3.0 0.00 0.00 0.00 87 1017.0
20260901131004 82 330 0.0 2.0 0.00 0.00 0.00 89 1017.0
20260901130504 82 148 0.0 2.0 0.00 0.00 0.00 90 1017.0
20260901130004 82 202 0.0 3.0 0.00 0.00 0.00 92 1017.1
20260901125504 81 293 1.0 3.0 0.00 0.00 0.00 93 1017.1
20260901124004 79 218 0.0 2.0 0.00 0.00 0.00 96 1017.2
20260901123504 79 199 0.0 2.0 0.00 0.00 0.00 96 1017.3
20260901122504 78 61 0.0 2.0 0.00 0.00 0.00 98 1017.3
20260901122004 78 124 0.0 1.0 0.00 0.00 0.00 98 1017.4
20260901121511 77 136 0.0 1.0 0.00 0.00 0.00 98 1017.4
20260901120504 76 120 0.0 1.0 0.00 0.00 0.00 98 1017.3
20260901120003 76 124 0.0 1.0 0.00 0.00 0.00 98 1017.3
20260901115004 75 127 0.0 1.0 0.00 0.00 0.00 98 1017.4
20260901114503 75 146 0.0 0.0 0.00 0.00 0.00 98 1017.3
20260901114005 74 146 0.0 0.0 0.00 0.00 0.00 98 1017.3
20260901113504 73 146 0.0 0.0 0.00 0.00 0.00 98 1017.3
20260901113004 73 146 0.0 0.0 0.00 0.00 0.00 98 1017.3
20260901112504 73 146 0.0 0.0 0.00 0.00 0.00 98 1017.3
20260901112004 73 146 0.0 0.0 0.00 0.00 0.00 98 1017.1
20260901111504 72 146 0.0 0.0 0.00 0.00 0.00 98 1017.0
20260901111004 72 147 0.0 0.0 0.00 0.00 0.00 98 1016.8
20260901110504 72 147 0.0 0.0 0.00 0.00 0.00 98 1016.9
20260901110004 72 147 0.0 0.0 0.00 0.00 0.00 98 1016.7
20260901105504 72 147 0.0 0.0 0.00 0.00 0.00 98 1016.7
20260901104004 72 147 0.0 0.0 0.00 0.00 0.00 98 1016.8
20260901103504 72 147 0.0 0.0 0.00 0.00 0.00 98 1016.9
20260901103004 72 147 0.0 0.0 0.00 0.00 0.00 98 1016.9
20260901102504 72 148 0.0 0.0 0.00 0.00 0.00 98 1016.9
20260901102004 71 148 0.0 0.0 0.00 0.00 0.00 98 1016.8
20260901101503 71 158 0.0 0.0 0.00 0.00 0.00 98 1016.9
20260901101004 71 158 0.0 1.0 0.00 0.00 0.00 98 1016.9
20260901100504 71 158 0.0 1.0 0.00 0.00 0.00 98 1016.9
20260901095504 71 148 0.0 0.0 0.00 0.00 0.00 98 1016.8
20260901095004 71 148 0.0 0.0 0.00 0.00 0.00 98 1016.7
20260901094504 71 148 0.0 0.0 0.00 0.00 0.00 98 1016.7
20260901094004 71 148 0.0 0.0 0.00 0.00 0.00 98 1016.7
20260901093504 71 148 0.0 0.0 0.00 0.00 0.00 98 1016.8
20260901092503 71 148 0.0 0.0 0.00 0.00 0.00 98 1016.9
20260901092005 71 148 0.0 0.0 0.00 0.00 0.00 98 1016.8
20260901091004 71 148 0.0 0.0 0.00 0.00 0.00 98 1016.7
20260901090505 71 148 0.0 0.0 0.00 0.00 0.00 98 1016.7
20260901090004 71 148 0.0 0.0 0.00 0.00 0.00 98 1016.8
20260901085504 71 148 0.0 0.0 0.00 0.00 0.00 98 1016.8
20260901084505 71 148 0.0 0.0 0.00 0.00 0.00 98 1016.9
20260901084003 71 148 0.0 0.0 0.00 0.00 0.00 98 1017.0
20260901083503 71 148 0.0 0.0 0.00 0.00 0.00 98 1017.0
20260901083004 71 148 0.0 0.0 0.00 0.00 0.00 98 1016.8
20260901082003 72 148 0.0 0.0 0.00 0.00 0.00 98 1016.8
20260901081004 72 148 0.0 0.0 0.00 0.00 0.00 98 1016.9
20260901080504 72 148 0.0 0.0 0.00 0.00 0.00 98 1016.9
20260901080004 72 148 0.0 0.0 0.00 0.00 0.00 98 1016.9
20260901075504 72 148 0.0 0.0 0.00 0.00 0.00 98 1017.0
20260901075004 72 148 0.0 0.0 0.00 0.00 0.00 98 1017.0
20260901074004 72 148 0.0 0.0 0.00 0.00 0.00 98 1017.1
20260901073504 72 148 0.0 0.0 0.00 0.00 0.00 97 1017.0
20260901073004 72 148 0.0 0.0 0.00 0.00 0.00 97 1017.1
20260901072504 72 148 0.0 0.0 0.00 0.00 0.00 97 1017.0
20260901071004 72 148 0.0 0.0 0.00 0.00 0.00 97 1017.1
20260901070504 72 148 0.0 0.0 0.00 0.00 0.00 97 1017.0
20260901065504 72 148 0.0 0.0 0.00 0.00 0.00 97 1017.1
20260901065004 72 148 0.0 0.0 0.00 0.00 0.00 97 1017.1
20260901064503 72 148 0.0 0.0 0.00 0.00 0.00 97 1017.2
20260901064004 72 148 0.0 0.0 0.00 0.00 0.00 97 1017.3
20260901063504 72 148 0.0 0.0 0.00 0.00 0.00 97 1017.3
20260901062504 72 148 0.0 0.0 0.00 0.00 0.00 97 1017.4
20260901062004 72 148 0.0 0.0 0.00 0.00 0.00 97 1017.5
20260901061504 72 148 0.0 0.0 0.00 0.00 0.00 97 1017.5
20260901061005 72 148 0.0 0.0 0.00 0.00 0.00 97 1017.5
20260901060504 72 148 0.0 0.0 0.00 0.00 0.00 97 1017.7
20260901060004 72 148 0.0 0.0 0.00 0.00 0.00 97 1017.7
20260901055004 73 148 0.0 0.0 0.00 0.00 0.00 97 1017.8
20260901054004 73 148 0.0 0.0 0.00 0.00 0.00 97 1018.1
20260901053503 73 148 0.0 0.0 0.00 0.00 0.00 97 1018.1
20260901053004 73 148 0.0 0.0 0.00 0.00 0.00 97 1018.1
20260901052504 73 148 0.0 0.0 0.00 0.00 0.00 97 1018.2
20260901052005 73 148 0.0 0.0 0.00 0.00 0.00 97 1018.2
20260901051504 73 148 0.0 0.0 0.00 0.00 0.00 97 1018.3
20260901051004 73 148 0.0 0.0 0.00 0.00 0.00 97 1018.4
20260901050505 73 148 0.0 0.0 0.00 0.00 0.00 97 1018.4
20260901045504 73 148 0.0 0.0 0.00 0.00 0.00 97 1018.4
20260901045004 73 148 0.0 0.0 0.00 0.00 0.00 97 1018.4
20260901044506 73 148 0.0 0.0 0.00 0.00 0.00 97 1018.3
20260901044004 73 148 0.0 0.0 0.00 0.00 0.00 97 1018.3
20260901043505 73 148 0.0 0.0 0.00 0.00 0.00 97 1018.2
20260901043004 73 148 0.0 0.0 0.00 0.00 0.00 97 1018.1
20260901042505 73 148 0.0 0.0 0.00 0.00 0.00 97 1018.1
20260901042004 73 148 0.0 0.0 0.00 0.00 0.00 97 1018.2
20260901041504 73 148 0.0 0.0 0.00 0.00 0.00 97 1018.2
20260901040504 73 148 0.0 0.0 0.00 0.00 0.00 97 1018.2
20260901035504 73 148 0.0 0.0 0.00 0.00 0.00 97 1018.1
20260901035004 73 148 0.0 0.0 0.00 0.00 0.00 97 1018.1
20260901034004 73 148 0.0 0.0 0.00 0.00 0.00 97 1018.0
20260901033504 73 148 0.0 0.0 0.00 0.00 0.00 97 1017.9
20260901033003 73 147 0.0 0.0 0.00 0.00 0.00 97 1018.0
20260901032504 73 147 0.0 0.0 0.00 0.00 0.00 97 1018.0
20260901032004 73 155 0.0 0.0 0.00 0.00 0.00 97 1018.0
20260901031004 73 155 0.0 1.0 0.00 0.00 0.00 97 1017.9
20260901030504 73 154 0.0 1.0 0.00 0.00 0.00 97 1017.9
20260901030004 73 158 0.0 0.0 0.00 0.00 0.00 97 1017.9
20260901025504 73 158 0.0 1.0 0.00 0.00 0.00 97 1017.9
20260901025004 73 158 0.0 1.0 0.00 0.00 0.00 97 1017.9
20260901024504 73 248 0.0 1.0 0.00 0.00 0.00 97 1018.0
20260901024004 73 248 0.0 0.0 0.00 0.00 0.00 97 1018.2
20260901023504 73 248 0.0 0.0 0.00 0.00 0.00 97 1018.2
20260901023004 73 249 0.0 1.0 0.00 0.00 0.00 96 1018.2
20260901022504 74 249 0.0 1.0 0.00 0.00 0.00 96 1018.3
20260901022005 74 133 0.0 0.0 0.00 0.00 0.00 96 1018.3
20260901021504 74 133 0.0 0.0 0.00 0.00 0.00 96 1018.4
20260901021004 74 144 0.0 0.0 0.00 0.00 0.00 96 1018.4
20260901020505 74 167 0.0 0.0 0.00 0.00 0.00 96 1018.5
20260901020004 74 168 0.0 0.0 0.00 0.00 0.00 96 1018.6
20260901015504 74 168 0.0 0.0 0.00 0.00 0.00 96 1018.6
20260901015004 74 168 0.0 0.0 0.00 0.00 0.00 96 1018.6
20260901014004 74 168 0.0 0.0 0.00 0.00 0.00 96 1018.7
20260901013004 74 169 0.0 0.0 0.00 0.00 0.00 96 1018.6
20260901012504 74 169 0.0 0.0 0.00 0.00 0.00 96 1018.6
20260901012005 74 169 0.0 0.0 0.00 0.00 0.00 96 1018.6
20260901011504 74 169 0.0 0.0 0.00 0.00 0.00 96 1018.6
20260901011004 74 169 0.0 0.0 0.00 0.00 0.00 96 1018.5
20260901010505 74 169 0.0 0.0 0.00 0.00 0.00 96 1018.5
20260901005504 74 169 0.0 1.0 0.00 0.00 0.00 95 1018.3
20260901005005 75 126 0.0 1.0 0.00 0.00 0.00 95 1018.4
20260901004504 74 131 0.0 1.0 0.00 0.00 0.00 95 1018.4
20260901004005 75 131 0.0 1.0 0.00 0.00 0.00 95 1018.3
20260901003003 75 132 0.0 1.0 0.00 0.00 0.00 95 1018.2
20260901002505 75 132 0.0 1.0 0.00 0.00 0.00 95 1018.2
20260901002004 75 132 0.0 1.0 0.00 0.00 0.00 95 1018.2
20260901001505 75 132 0.0 1.0 0.00 0.00 0.00 94 1018.2
20260901001004 75 116 0.0 0.0 0.00 0.00 0.00 94 1018.2
20260901000004 76 115 0.0 0.0 0.00 0.00 0.00 94 1018.2
20260831235504 76 115 0.0 0.0 0.00 0.00 0.00 94 1018.2
20260831235004 76 116 0.0 1.0 0.00 0.00 0.00 94 1018.3
20260831234504 76 117 0.0 1.0 0.00 0.00 0.00 94 1018.3
20260831234005 76 117 0.0 1.0 0.00 0.00 0.00 94 1018.4
20260831233504 76 117 0.0 1.0 0.00 0.00 0.00 93 1018.5
20260831233004 76 166 0.0 1.0 0.00 0.00 0.00 93 1018.4
20260831232504 76 131 0.0 1.0 0.00 0.00 0.00 93 1018.5
20260831232004 76 125 0.0 2.0 0.00 0.00 0.00 93 1018.5
20260831231504 76 141 0.0 2.0 0.00 0.00 0.00 93 1018.5
20260831231004 76 106 0.0 1.0 0.00 0.00 0.00 93 1018.5
20260831230503 77 106 0.0 3.0 0.00 0.00 0.00 93 1018.5